DW5138 Weather Reports


Display with metric or nautical units.
time (UTC)temp
F
wind
direction
speed
MPH
gust
MPH
rain 1hr
in
rain 24hr
in
rain mn
in
humidity
%
barometer
mb
20210925223757 77 253 2.0 10.0 0.00 0.00 0.00 23 3061.7
20210925223258 78 6 1.0 10.0 0.00 0.00 0.00 22 3061.9
20210925222757 79 222 2.0 8.0 0.00 0.00 0.00 22 3063.3
20210925222257 79 47 1.0 6.0 0.00 0.00 0.00 22 3063.5
20210925221757 79 248 0.0 6.0 0.00 0.00 0.00 22 3063.7
20210925221257 79 15 3.0 5.0 0.00 0.00 0.00 22 3064.1
20210925220757 79 50 0.0 5.0 0.00 0.00 0.00 23 3064.1
20210925220257 77 66 0.0 5.0 0.00 0.00 0.00 23 3062.8
20210925215757 77 201 0.0 3.0 0.00 0.00 0.00 23 3063.2
20210925215258 77 226 2.0 3.0 0.00 0.00 0.00 24 3063.3
20210925214757 77 256 0.0 3.0 0.00 0.00 0.00 23 3063.5
20210925214257 78 253 0.0 4.0 0.00 0.00 0.00 23 3063.8
20210925213757 79 62 0.0 4.0 0.00 0.00 0.00 22 3065.1
20210925213257 79 284 1.0 7.0 0.00 0.00 0.00 22 3065.6
20210925212757 79 228 3.0 7.0 0.00 0.00 0.00 22 3065.5
20210925212257 79 185 0.0 6.0 0.00 0.00 0.00 22 3066.0
20210925211757 80 98 0.0 4.0 0.00 0.00 0.00 22 3066.2
20210925211257 80 197 1.0 6.0 0.00 0.00 0.00 21 3066.6
20210925210757 80 111 0.0 6.0 0.00 0.00 0.00 21 3066.8
20210925210257 80 230 1.0 10.0 0.00 0.00 0.00 22 3068.6
20210925205758 80 23 4.0 10.0 0.00 0.00 0.00 21 3068.8
20210925205257 80 63 2.0 7.0 0.00 0.00 0.00 21 3069.1
20210925204757 80 173 4.0 7.0 0.00 0.00 0.00 22 3069.5
20210925204258 79 76 1.0 8.0 0.00 0.00 0.00 22 3069.4
20210925203757 79 272 2.0 8.0 0.00 0.00 0.00 21 3069.7
20210925203257 79 218 1.0 6.0 0.00 0.00 0.00 21 3069.8
20210925202757 80 20 4.0 7.0 0.00 0.00 0.00 21 3070.5
20210925202257 79 219 1.0 7.0 0.00 0.00 0.00 20 3070.2
20210925201757 79 286 3.0 7.0 0.00 0.00 0.00 20 3070.6
20210925201257 79 75 0.0 7.0 0.00 0.00 0.00 20 3071.1
20210925200757 79 266 6.0 7.0 0.00 0.00 0.00 20 3071.3
20210925200258 79 269 3.0 6.0 0.00 0.00 0.00 19 3071.6
20210925195757 79 14 0.0 6.0 0.00 0.00 0.00 19 3071.8
20210925195257 79 274 3.0 4.0 0.00 0.00 0.00 18 3072.2
20210925194757 79 232 1.0 6.0 0.00 0.00 0.00 19 3072.5
20210925194258 79 226 0.0 9.0 0.00 0.00 0.00 17 3072.9
20210925193757 79 237 5.0 9.0 0.00 0.00 0.00 18 3073.0
20210925193258 80 336 1.0 5.0 0.00 0.00 0.00 19 3073.6
20210925192758 79 80 1.0 8.0 0.00 0.00 0.00 20 3074.0
20210925192257 79 20 4.0 8.0 0.00 0.00 0.00 21 3074.5
20210925191757 79 232 1.0 7.0 0.00 0.00 0.00 19 3074.4
20210925191257 79 90 0.0 7.0 0.00 0.00 0.00 19 3074.8
20210925190758 78 334 1.0 5.0 0.00 0.00 0.00 21 3073.9
20210925190257 78 30 0.0 5.0 0.00 0.00 0.00 21 3077.2
20210925185757 78 260 0.0 5.0 0.00 0.00 0.00 19 3077.1
20210925185257 78 33 2.0 8.0 0.00 0.00 0.00 23 3077.7
20210925184757 77 296 5.0 8.0 0.00 0.00 0.00 21 3077.9
20210925184257 77 232 1.0 5.0 0.00 0.00 0.00 22 3078.2
20210925183757 77 336 2.0 4.0 0.00 0.00 0.00 22 3078.7
20210925183257 76 232 2.0 6.0 0.00 0.00 0.00 21 3077.4
20210925182757 76 264 2.0 6.0 0.00 0.00 0.00 24 3078.0
20210925182257 77 222 2.0 7.0 0.00 0.00 0.00 24 3079.6
20210925181758 77 350 4.0 7.0 0.00 0.00 0.00 25 3079.9
20210925181257 77 209 2.0 7.0 0.00 0.00 0.00 26 3080.7
20210925180757 78 265 2.0 7.0 0.00 0.00 0.00 24 3080.7
20210925180257 77 258 0.0 7.0 0.00 0.00 0.00 25 3081.0
20210925175757 77 325 0.0 6.0 0.00 0.00 0.00 26 3080.8
20210925175257 76 95 0.0 6.0 0.00 0.00 0.00 26 3081.0
20210925174759 77 6 2.0 6.0 0.00 0.00 0.00 24 3081.1
20210925174257 76 195 2.0 6.0 0.00 0.00 0.00 25 3081.0
20210925173757 76 215 3.0 6.0 0.00 0.00 0.00 23 3080.9
20210925173257 76 244 0.0 5.0 0.00 0.00 0.00 26 3081.7
20210925172758 76 255 1.0 5.0 0.00 0.00 0.00 23 3081.0
20210925172257 76 247 1.0 3.0 0.00 0.00 0.00 23 3081.5
20210925171757 75 230 1.0 3.0 0.00 0.00 0.00 23 3080.2
20210925171257 74 43 1.0 4.0 0.00 0.00 0.00 27 3080.6
20210925170757 74 355 1.0 4.0 0.00 0.00 0.00 27 3081.0
20210925170257 74 55 2.0 4.0 0.00 0.00 0.00 27 3081.1
20210925165758 74 78 0.0 4.0 0.00 0.00 0.00 29 3081.3
20210925165257 74 275 0.0 3.0 0.00 0.00 0.00 28 3081.3
20210925164757 73 237 0.0 3.0 0.00 0.00 0.00 32 3081.5
20210925164257 72 230 0.0 3.0 0.00 0.00 0.00 29 3079.8
20210925163757 71 166 0.0 3.0 0.00 0.00 0.00 35 3080.5
20210925163258 70 82 0.0 3.0 0.00 0.00 0.00 32 3078.9
20210925162757 70 24 1.0 3.0 0.00 0.00 0.00 31 3078.5
20210925162257 70 262 1.0 1.0 0.00 0.00 0.00 33 3078.9
20210925161757 70 263 0.0 0.0 0.00 0.00 0.00 36 3079.4
20210925161257 69 263 0.0 2.0 0.00 0.00 0.00 37 3079.7
20210925160758 68 263 0.0 2.0 0.00 0.00 0.00 38 3078.5
20210925160257 68 256 0.0 2.0 0.00 0.00 0.00 37 3080.0
20210925155757 67 256 0.0 4.0 0.00 0.00 0.00 39 3078.8
20210925155257 66 61 0.0 4.0 0.00 0.00 0.00 41 3079.2
20210925154757 66 74 0.0 2.0 0.00 0.00 0.00 40 3079.4
20210925154257 65 75 0.0 1.0 0.00 0.00 0.00 39 3077.6
20210925153757 64 92 0.0 2.0 0.00 0.00 0.00 42 3077.8
20210925153258 63 74 0.0 2.0 0.00 0.00 0.00 42 3076.2
20210925152757 63 212 0.0 2.0 0.00 0.00 0.00 44 3076.4
20210925152258 62 222 0.0 2.0 0.00 0.00 0.00 45 3076.6
20210925151757 61 218 0.0 2.0 0.00 0.00 0.00 46 3075.3
20210925151257 60 218 0.0 2.0 0.00 0.00 0.00 46 3075.4
20210925150757 60 221 0.0 2.0 0.00 0.00 0.00 46 3075.4
20210925150257 61 221 2.0 2.0 0.00 0.00 0.00 47 3078.3
20210925145757 60 113 0.0 0.0 0.00 0.00 0.00 50 3076.7
20210925145257 60 133 0.0 0.0 0.00 0.00 0.00 50 3076.4
20210925144757 59 133 0.0 1.0 0.00 0.00 0.00 52 3076.8
20210925144257 58 185 0.0 1.0 0.00 0.00 0.00 52 3075.3
20210925143757 57 150 0.0 0.0 0.00 0.00 0.00 54 3075.0
20210925143257 57 150 0.0 0.0 0.00 0.00 0.00 55 3075.1
20210925142757 57 204 0.0 0.0 0.00 0.00 0.00 55 3075.4
20210925142257 56 141 0.0 0.0 0.00 0.00 0.00 56 3073.9
20210925141757 55 77 0.0 0.0 0.00 0.00 0.00 59 3074.0
20210925141257 54 77 0.0 0.0 0.00 0.00 0.00 63 3072.5
20210925140757 53 75 0.0 0.0 0.00 0.00 0.00 63 3072.2
20210925140257 52 75 0.0 0.0 0.00 0.00 0.00 65 3072.2
20210925135757 51 75 0.0 0.0 0.00 0.00 0.00 66 3072.1
20210925135257 50 75 0.0 0.0 0.00 0.00 0.00 67 3070.4
20210925134757 50 75 0.0 0.0 0.00 0.00 0.00 68 3070.5
20210925134257 49 75 0.0 0.0 0.00 0.00 0.00 71 3070.5
20210925133759 47 75 0.0 0.0 0.00 0.00 0.00 74 3069.0
20210925133257 45 75 0.0 0.0 0.00 0.00 0.00 76 3067.2
20210925132757 45 75 0.0 0.0 0.00 0.00 0.00 78 3067.2
20210925132258 43 75 0.0 0.0 0.00 0.00 0.00 79 3065.0
20210925131757 43 74 0.0 0.0 0.00 0.00 0.00 80 3064.6
20210925131257 47 71 0.0 0.0 0.00 0.00 0.00 66 3067.2
20210925130757 47 71 0.0 0.0 0.00 0.00 0.00 66 3067.3
20210925130257 47 71 0.0 0.0 0.00 0.00 0.00 66 3068.9
20210925125757 47 71 0.0 0.0 0.00 0.00 0.00 66 3068.9
20210925125257 47 71 0.0 0.0 0.00 0.00 0.00 66 3068.8
20210925124757 47 71 0.0 0.0 0.00 0.00 0.00 66 3068.6
20210925124258 47 71 0.0 0.0 0.00 0.00 0.00 66 3068.7
20210925123757 47 71 0.0 0.0 0.00 0.00 0.00 66 3068.9
20210925123257 47 71 0.0 0.0 0.00 0.00 0.00 66 3069.0
20210925122758 47 71 0.0 0.0 0.00 0.00 0.00 66 3069.0
20210925122258 47 71 0.0 0.0 0.00 0.00 0.00 66 3069.0
20210925121757 47 71 0.0 0.0 0.00 0.00 0.00 66 3068.9
20210925121257 47 71 0.0 0.0 0.00 0.00 0.00 66 3069.4
20210925120757 47 71 0.0 0.0 0.00 0.00 0.00 66 3069.6
20210925120257 47 71 0.0 0.0 0.00 0.00 0.00 66 3072.7
20210925115757 47 71 0.0 0.0 0.00 0.00 0.00 66 3072.5
20210925115257 47 71 0.0 0.0 0.00 0.00 0.00 66 3072.5
20210925114757 47 71 0.0 0.0 0.00 0.00 0.00 66 3072.8
20210925114257 47 71 0.0 0.0 0.00 0.00 0.00 66 3073.0
20210925113757 47 71 0.0 0.0 0.00 0.00 0.00 66 3073.0
20210925113257 47 71 0.0 0.0 0.00 0.00 0.00 66 3073.1
20210925112757 47 71 0.0 0.0 0.00 0.00 0.00 66 3073.1
20210925112257 47 71 0.0 0.0 0.00 0.00 0.00 66 3073.2
20210925111757 47 71 0.0 0.0 0.00 0.00 0.00 66 3073.4
20210925111257 47 71 0.0 0.0 0.00 0.00 0.00 66 3073.6
20210925110757 47 71 0.0 0.0 0.00 0.00 0.00 66 3073.8
20210925110257 47 71 0.0 0.0 0.00 0.00 0.00 66 3076.4
20210925105758 47 71 0.0 0.0 0.00 0.00 0.00 66 3076.3
20210925105257 47 71 0.0 0.0 0.00 0.00 0.00 66 3076.8
20210925104757 47 71 0.0 0.0 0.00 0.00 0.00 66 3076.9
20210925104257 47 71 0.0 0.0 0.00 0.00 0.00 66 3076.7
20210925103757 47 71 0.0 0.0 0.00 0.00 0.00 66 3076.9
20210925103257 47 71 0.0 0.0 0.00 0.00 0.00 66 3077.2
20210925102757 47 71 0.0 0.0 0.00 0.00 0.00 66 3077.4
20210925102257 47 71 0.0 0.0 0.00 0.00 0.00 66 3077.4
20210925101757 47 71 0.0 0.0 0.00 0.00 0.00 66 3077.5
20210925101257 47 71 0.0 0.0 0.00 0.00 0.00 66 3077.9
20210925100758 47 71 0.0 0.0 0.00 0.00 0.00 66 3078.3
20210925100257 47 71 0.0 0.0 0.00 0.00 0.00 66 3080.3
20210925095757 47 71 0.0 1.0 0.00 0.00 0.00 66 3080.3
20210925095257 47 71 0.0 1.0 0.00 0.00 0.00 66 3080.0
20210925094757 48 73 0.0 1.0 0.00 0.00 0.00 66 3081.6
20210925094257 48 73 0.0 1.0 0.00 0.00 0.00 66 3081.6
20210925093757 48 73 0.0 0.0 0.00 0.00 0.00 66 3081.7
20210925093257 48 73 0.0 0.0 0.00 0.00 0.00 67 3081.8
20210925092757 48 73 0.0 0.0 0.00 0.00 0.00 66 3081.8
20210925092257 48 73 0.0 0.0 0.00 0.00 0.00 66 3081.8
20210925091757 48 73 0.0 0.0 0.00 0.00 0.00 64 3081.6
20210925091258 49 73 0.0 0.0 0.00 0.00 0.00 64 3081.8
20210925090757 49 73 0.0 0.0 0.00 0.00 0.00 64 3081.5
20210925090257 49 73 0.0 0.0 0.00 0.00 0.00 64 3082.8
20210925085757 49 73 0.0 0.0 0.00 0.00 0.00 64 3082.6
20210925085257 49 73 0.0 0.0 0.00 0.00 0.00 64 3082.7
20210925084759 49 73 0.0 0.0 0.00 0.00 0.00 64 3082.6
20210925084257 49 73 0.0 0.0 0.00 0.00 0.00 62 3082.7
20210925083757 50 73 0.0 0.0 0.00 0.00 0.00 63 3084.0
20210925083257 49 73 0.0 0.0 0.00 0.00 0.00 64 3082.5
20210925082757 49 73 0.0 0.0 0.00 0.00 0.00 63 3082.2
20210925082257 49 73 0.0 0.0 0.00 0.00 0.00 63 3082.2
20210925081757 49 73 0.0 0.0 0.00 0.00 0.00 63 3082.3
20210925081257 50 73 0.0 0.0 0.00 0.00 0.00 62 3083.4
20210925080757 49 73 0.0 0.0 0.00 0.00 0.00 63 3081.9
20210925080257 50 72 0.0 0.0 0.00 0.00 0.00 62 3083.3
20210925075758 50 73 0.0 0.0 0.00 0.00 0.00 62 3083.3
20210925075258 50 73 0.0 0.0 0.00 0.00 0.00 61 3083.2
20210925074758 51 73 0.0 0.0 0.00 0.00 0.00 59 3083.6
20210925074257 51 73 0.0 0.0 0.00 0.00 0.00 59 3083.6
20210925073757 52 73 0.0 0.0 0.00 0.00 0.00 58 3085.0
20210925073258 52 73 0.0 1.0 0.00 0.00 0.00 57 3085.0
20210925072758 53 73 0.0 1.0 0.00 0.00 0.00 56 3085.0
20210925072257 53 73 0.0 2.0 0.00 0.00 0.00 57 3085.3
20210925071758 53 73 0.0 4.0 0.00 0.00 0.00 56 3085.4
20210925071257 53 29 2.0 4.0 0.00 0.00 0.00 56 3085.4
20210925070757 53 102 0.0 1.0 0.00 0.00 0.00 56 3085.3
20210925070258 53 61 0.0 4.0 0.00 0.00 0.00 55 3085.7
20210925065757 53 57 0.0 4.0 0.00 0.00 0.00 55 3085.7
20210925065257 53 80 0.0 1.0 0.00 0.00 0.00 55 3085.4
20210925064757 53 87 0.0 0.0 0.00 0.00 0.00 54 3085.7
20210925064258 54 87 0.0 3.0 0.00 0.00 0.00 54 3085.9
20210925063757 54 87 0.0 3.0 0.00 0.00 0.00 54 3085.7
20210925063257 54 58 0.0 2.0 0.00 0.00 0.00 53 3085.8
20210925062757 54 242 1.0 1.0 0.00 0.00 0.00 53 3085.8
20210925062257 54 59 0.0 2.0 0.00 0.00 0.00 53 3085.9
20210925061757 54 59 1.0 3.0 0.00 0.00 0.00 53 3086.1
20210925061257 54 355 0.0 3.0 0.00 0.00 0.00 53 3086.3
20210925060758 54 61 0.0 2.0 0.00 0.00 0.00 52 3086.1
20210925060259 54 99 0.0 0.0 0.00 0.00 0.00 53 3083.7
20210925055757 54 99 0.0 1.0 0.00 0.00 0.00 52 3083.7
20210925055257 54 99 0.0 1.0 0.00 0.00 0.00 52 3083.8
20210925054757 54 258 0.0 0.0 0.00 0.00 0.00 52 3083.7
20210925054257 54 258 0.0 0.0 0.00 0.00 0.00 52 3083.8
20210925053757 54 258 0.0 0.0 0.00 0.00 0.00 52 3083.7
20210925053257 54 258 0.0 1.0 0.00 0.00 0.00 52 3083.8
20210925052758 54 258 0.0 1.0 0.00 0.00 0.00 51 3083.6
20210925052257 54 105 0.0 2.0 0.00 0.00 0.00 50 3083.8
20210925051757 55 105 0.0 2.0 0.00 0.00 0.00 50 3084.9
20210925051257 55 73 0.0 0.0 0.00 0.00 0.00 50 3084.8
20210925050757 55 73 0.0 0.0 0.00 0.00 0.00 49 3084.5
20210925050257 55 73 0.0 0.0 0.00 0.00 0.00 49 3084.9
20210925045758 55 73 0.0 0.0 0.00 0.00 0.00 49 3084.5
20210925045257 55 73 0.0 0.0 0.00 0.00 0.00 49 3084.4
20210925044757 55 73 0.0 1.0 0.00 0.00 0.00 48 3084.2
20210925044257 55 73 0.0 1.0 0.00 0.00 0.00 48 3084.4
20210925043758 55 59 0.0 3.0 0.00 0.00 0.00 48 3084.5
20210925043257 55 59 0.0 3.0 0.00 0.00 0.00 48 3084.5
20210925042757 55 99 0.0 0.0 0.00 0.00 0.00 48 3084.5
20210925042257 55 99 0.0 0.0 0.00 0.00 0.00 48 3084.4
20210925041757 56 99 0.0 0.0 0.00 0.00 0.00 47 3085.6
20210925041257 56 99 0.0 0.0 0.00 0.00 0.00 47 3085.6
20210925040757 56 99 0.0 0.0 0.00 0.00 0.00 46 3085.4
20210925040257 57 135 0.0 0.0 0.00 0.00 0.00 45 3085.5
20210925035757 57 135 0.0 0.0 0.00 0.00 0.00 45 3085.3
20210925035258 57 135 0.0 0.0 0.00 0.00 0.00 45 3085.2
20210925034757 57 135 0.0 0.0 0.00 0.00 0.00 45 3085.2
20210925034257 57 135 0.0 0.0 0.00 0.00 0.00 44 3085.2
20210925033758 58 135 0.0 0.0 0.00 0.00 0.00 44 3085.2
20210925033258 58 135 0.0 0.0 0.00 0.00 0.00 43 3084.9
20210925032757 59 218 0.0 0.0 0.00 0.00 0.00 42 3086.2
20210925032257 59 217 0.0 0.0 0.00 0.00 0.00 42 3086.1
20210925031758 59 149 0.0 0.0 0.00 0.00 0.00 42 3086.2
20210925031257 59 168 0.0 1.0 0.00 0.00 0.00 41 3085.8
20210925030757 59 151 0.0 2.0 0.00 0.00 0.00 41 3085.9
20210925030257 60 239 0.0 2.0 0.00 0.00 0.00 41 3081.6
20210925025757 60 77 0.0 4.0 0.00 0.00 0.00 40 3081.5
20210925025257 60 77 0.0 4.0 0.00 0.00 0.00 40 3081.5
20210925024758 60 126 0.0 4.0 0.00 0.00 0.00 40 3081.1
20210925024257 60 60 0.0 4.0 0.00 0.00 0.00 39 3080.8
20210925023757 60 61 0.0 4.0 0.00 0.00 0.00 39 3080.6
20210925023257 60 66 0.0 4.0 0.00 0.00 0.00 39 3080.4
20210925022757 60 140 0.0 4.0 0.00 0.00 0.00 39 3080.1
20210925022258 61 77 0.0 4.0 0.00 0.00 0.00 39 3079.7
20210925021757 61 110 0.0 2.0 0.00 0.00 0.00 39 3079.7
20210925021257 61 71 0.0 3.0 0.00 0.00 0.00 38 3078.9
20210925020757 61 71 0.0 3.0 0.00 0.00 0.00 38 3078.4
20210925020257 61 82 0.0 1.0 0.00 0.00 0.00 38 3076.9
20210925015757 62 88 0.0 1.0 0.00 0.00 0.00 37 3076.9
20210925015257 62 88 0.0 1.0 0.00 0.00 0.00 37 3076.3
20210925014758 62 95 0.0 3.0 0.00 0.00 0.00 37 3076.3
20210925014257 63 90 0.0 3.0 0.00 0.00 0.00 36 3077.3
20210925013757 63 20 0.0 3.0 0.00 0.00 0.00 36 3077.3
20210925013257 63 42 0.0 2.0 0.00 0.00 0.00 36 3077.0
20210925012757 63 99 0.0 5.0 0.00 0.00 0.00 35 3076.7
20210925012257 64 211 0.0 5.0 0.00 0.00 0.00 35 3076.6
20210925011757 64 107 0.0 6.0 0.00 0.00 0.00 34 3076.1
20210925011257 64 195 0.0 6.0 0.00 0.00 0.00 34 3075.9
20210925010757 64 103 0.0 5.0 0.00 0.00 0.00 34 3075.7
20210925010257 65 25 0.0 4.0 0.00 0.00 0.00 33 3071.6
20210925005757 65 167 0.0 5.0 0.00 0.00 0.00 33 3071.2
20210925005257 65 78 0.0 5.0 0.00 0.00 0.00 32 3070.8
20210925004758 66 218 5.0 5.0 0.00 0.00 0.00 32 3070.6
20210925004258 66 183 0.0 5.0 0.00 0.00 0.00 31 3070.6
20210925003757 66 199 1.0 4.0 0.00 0.00 0.00 31 3070.1
20210925003257 66 135 0.0 3.0 0.00 0.00 0.00 31 3069.8
20210925002757 67 253 1.0 7.0 0.00 0.00 0.00 30 3071.1
20210925002257 67 180 0.0 7.0 0.00 0.00 0.00 30 3070.9
20210925001757 68 180 1.0 6.0 0.00 0.00 0.00 29 3070.4
20210925001257 68 277 6.0 6.0 0.00 0.00 0.00 29 3070.4
20210925000757 69 237 1.0 4.0 0.00 0.00 0.00 28 3071.4
20210925000257 69 21 0.0 7.0 0.00 0.00 0.00 27 3071.2
20210924235757 70 107 0.0 8.0 0.00 0.00 0.00 27 3071.2
20210924235258 70 56 0.0 8.0 0.00 0.00 0.00 26 3071.1
20210924234757 71 54 0.0 8.0 0.00 0.00 0.00 26 3072.2
20210924234257 71 224 3.0 8.0 0.00 0.00 0.00 26 3072.1
20210924233757 71 260 3.0 6.0 0.00 0.00 0.00 25 3072.0
20210924233258 71 271 4.0 12.0 0.00 0.00 0.00 25 3071.9
20210924232757 72 248 3.0 12.0 0.00 0.00 0.00 25 3071.9
20210924232257 72 225 0.0 7.0 0.00 0.00 0.00 24 3071.7
20210924231757 72 244 0.0 7.0 0.00 0.00 0.00 24 3071.7
20210924231257 72 223 0.0 7.0 0.00 0.00 0.00 24 3071.6
20210924230758 73 82 1.0 10.0 0.00 0.00 0.00 24 3072.6
20210924230258 73 58 1.0 10.0 0.00 0.00 0.00 24 3072.6
20210924225757 73 199 3.0 11.0 0.00 0.00 0.00 23 3072.3
20210924225257 73 78 3.0 11.0 0.00 0.00 0.00 23 3072.0
20210924224758 74 202 4.0 9.0 0.00 0.00 0.00 23 3072.1
20210924224257 73 227 1.0 8.0 0.00 0.00 0.00 23 3071.8